OBJECT C, 64089

Orbit data source: Space-Track

You're viewing an Uncataloged Satellite

Recently launched and/or uncataloged satellites may have evolving metadata. Metadata may include but not limited to: Owner, Maufacturer, Bus, Motor, and Mission.

OBJECT C, 64089 is a Chinese satellite in SSO that was launched on Wed, 21 May 2025 UTC via a LIJIAN-1 launch vehicle from the Jiuquan Satellite Launch Center, China (JSC). Unknown objects in Earth's orbit typically refer to objects detected orbiting the Earth but have not yet been identified or cataloged. These objects could be anything from previously untracked satellites, spent rocket stages, debris from satellite collisions, or even natural meteoroids temporarily captured by Earth's gravity.

Loading next visibility...
Identifier
64089, 2025-108C
Orbit
SSO
Country
Flag of CNCN / PRC
Related business
None
Manufacturer
Unknown
Mission
Operational Commercial Imaging
Bus & Motor
Unknown
Mass
Unknown
Launch date (UTC)
2025-05-21 (1 year ago)
Launch vehicle
LIJIAN-1
Launch site
Jiuquan Satellite Launch Center, China (JSC)
Object type
Unknown
Shape & HBR
Box, 1.1 m
Radar Cross Section
0.375 m², Medium (>0.1 m² and < 1m²)

Expand to show TLE details & history
Last TLE update: 12 hours ago

TLE from 12 hours ago
0 OBJECT C
1 64089U 25108C   26171.48561997  .00004206  00000-0  23980-3 0  9996
2 64089  97.4683 245.5494 0009845  34.9925 325.1952 15.13282601 59760
Epoch: 2026-06-20T11:39Z
TLE epoch observation values (Epoch: 2026-06-20T11:39:17.565Z)
Latitude
0.00004°
Longitude
162.02665°
Altitude
523.696 km
Speed
7.604 km/s
True Right ascension
16h 22m 11s
True Declination
0° 00' 00"
Sunlit
Object was in full shadow at epoch
Visualization orbit readout
Latitude
Unknown
Longitude
Unknown
Altitude
Unknown
Speed
Unknown
Apparent Right ascension
Unknown
Apparent Declination
Unknown
Sunlit
N/A
Visualization observer readout
Local Sidereal Time
10:17:56
Azimuth
Unknown
Elevation
Unknown
Doppler factor
Unknown
Orbital elements
Apogee altitude
529.969 km
Perigee altitude
516.38 km
Semi-major axis
6,901.312 km
Eccentricity
0.00098
Inclination
97.4683°
RAAN
245.5494°
Arg. of periapsis
34.9925°
True anomaly
325.13074°
Mean anomaly
325.1952°
Eccentric anomaly
325.16298°
Mean motion
3.7857 °/min
Orbital period
95.09 mins
BSTAR
0.0002398
Loading maneuver chart data...
Computing Atmospheric mass density...
Loading historical data...
Loading historical data...
Loading historical data...
Loading historical data...
Loading historical data...
Loading historical data...
Loading historical data...
Other satellites on launch #108 in the year 2025 (2025-05-21 UTC)

Documentation

Showing up to 5 results
|